Hourly Data Report for August 23, 2017

KITCHENER/WATERLOO
ONTARIO

43°27'39.000" N
80°22'43.000" W
321.60 m
6144239
71368
YKF

Download Data

Hourly Data (August 2017)
Hourly Data Report for August 23, 2017
TIME
LST
Temp Definition
°C
Dew Point Definition
°C
Rel Hum Definition
%
Precip. Amount Definition
mm

Wind Dir Definition
10's deg

Wind Spd Definition
km/h
Visibility Definition
km
Stn Press Definition
kPa
Hmdx Definition


Wind Chill Definition


Weather Definition


00:00 15.0 12.6 85 0.0 27 11 16.1 97.19     LegendNANA
01:00 14.4 11.6 83 0.0 26 13 16.1 97.23     LegendNANA
02:00 14.4 11.6 83 0.0 26 15 16.1 97.25     LegendNANA
03:00 13.4 11.1 86 0.0 27 13 16.1 97.27     LegendNANA
04:00 13.1 10.7 85 0.0 25 11 16.1 97.30     LegendNANA
05:00 12.3 10.4 88 0.0 23 11 16.1 97.30     LegendNANA
06:00 12.8 10.6 87 0.0 25 11 16.1 97.34     LegendNANA
07:00 14.9 12.3 84 0.0 24 13 16.1 97.35     LegendNANA
08:00 17.0 13.4 79 0.0 24 18 16.1 97.37     LegendNANA
09:00 18.3 13.9 75 0.0 28 26 16.1 97.38     LegendNANA
10:00 19.6 12.8 64 0.0 28 26 16.1 97.36     LegendNANA
11:00 20.2 13.1 63 0.0 30 18 16.1 97.37     LegendNANA
12:00 16.4 14.1 86 0.2 30 22 16.1 97.44     Rain
13:00 19.8 14.1 69 0.0 27 22 16.1 97.43     LegendNANA
14:00 21.0 11.8 55 0.0 30 24 16.1 97.44     LegendNANA
15:00 20.4 10.7 53 0.0 29 26 16.1 97.48     LegendNANA
16:00 19.0 11.0 60 0.0 28 28 16.1 97.51     LegendNANA
17:00 18.6 8.8 53 0.0 30 26 16.1 97.53     LegendNANA
18:00 17.4 9.7 60 0.0 31 13 16.1 97.54     LegendNANA
19:00 15.5 10.0 70 0.0 31 11 16.1 97.59     LegendNANA
20:00 13.7 10.3 80 0.0 30 9 16.1 97.64     LegendNANA
21:00 12.7 10.5 86 0.0 32 9 16.1 97.66     LegendNANA
22:00 11.9 10.3 90 0.0 29 11 16.1 97.67     LegendNANA
23:00 11.7 10.1 90 0.0 29 9 16.1 97.66     LegendNANA

Notes on Data Quality.

Legend

  • E = Estimated
  • M = Missing
  • NA = Not Available*
  • [empty] = Indicates an unobserved value
Date modified: